Location: Stara Lesna
(49.1528°N, 20.2911°E)
Time: 02:38:18
(UTC+02:00)

Tsikada Rocket - Pass Details

Date: 13 July 2020
Orbit: 959 x 1008 km, 82.9° (Epoch: 11 August)

Event Time Altitude Azimuth Distance (km) Brightness Sun altitude
Rises 03:02:19 0° 348° (NNW) 3,745 7.8 -12.7°
Reaches altitude 10° 03:04:51 10° 347° (NNW) 2,794 7.0 -12.5°
Maximum altitude 03:11:15 70° 265° (W) 1,070 4.1 -11.9°
Drops below altitude 10° 03:17:35 10° 183° (S) 2,777 5.9 -11.3°
Enters shadow 03:17:59 - 183° (S) 2,921 6.0 -11.3°
